Change the Weather History Date:

Tuesday, November 13, 2012

  Actual Average (KCLL) Record (KCLL)
Temperature  
Mean Temperature 46 °F 62 °F  
Max Temperature 57 °F 72 °F 90 °F (1921)
Min Temperature 35 °F 52 °F 25 °F (1911)
Degree Days  
Heating Degree Days 19 5  
Month to date heating degree days 53  
Since 1 July heating degree days 90  
Cooling Degree Days 0 2  
Month to date cooling degree days 39  
Year to date cooling degree days 3051  
Moisture  
Dew Point 29 °F    
Average Humidity 52    
Maximum Humidity 81    
Minimum Humidity 25    
Precipitation  
Precipitation 0.00 in 0.12 in 1.27 in (1976)
Month to date precipitation 1.49  
Year to date precipitation 35.10  
Sea Level Pressure  
Sea Level Pressure 30.45 in    
Wind  
Wind Speed 5 mph (NNE)    
Max Wind Speed 13 mph    
Max Gust Speed 17 mph    
Visibility 10 miles    
Events Thunderstorm    
T = Trace of Precipitation, MM = Missing Value Source: NWS Daily Summary

Daily Weather History Graph

Daily Weather History Graph

Search for Another Location

Airport or City:

Trip Planner

Search our weather history database for the weather conditions in past years. The results will help you decide how hot, cold, wet, or windy it might be!

Date:

Astronomy

Nov. 13, 2012 Rise Set
Actual Time 6:51 AM CST 5:30 PM CST
Civil Twilight 6:26 AM CST 5:55 PM CST
Nautical Twilight 5:57 AM CST 6:24 PM CST
Astronomical Twilight 5:28 AM CST 6:53 PM CST
Moon 6:30 AM CST (11/13) 5:26 PM CST (11/13)
Length of Visible Light 11h 29m
Length of Day
10h 38m
Waning Crescent, 0% of the Moon is Illuminated
Nov 13
Waning Crescent
Nov 13
New
Nov 20
First Quarter
Nov 28
Full
Dec 6
Last Quarter

Hourly Weather History & Observations

Time (CST) Temp. Windchill Dew Point Humidity Pressure Visibility Wind Dir Wind Speed Gust Speed Precip Events Conditions
12:15 AM 39.2 °F 34.2 °F 32.0 °F 75% 30.52 in 10.0 mi NNW 6.9 mph - N/A   Clear
12:35 AM 39.2 °F 35.0 °F 32.0 °F 75% 30.52 in 10.0 mi NNW 5.8 mph - N/A   Clear
12:55 AM 39.2 °F 35.9 °F 32.0 °F 75% 30.52 in 10.0 mi North 4.6 mph - N/A   Clear
1:15 AM 39.2 °F 37.0 °F 30.2 °F 70% 30.51 in 10.0 mi North 3.5 mph - N/A   Clear
1:35 AM 39.2 °F - 30.2 °F 70% 30.51 in 10.0 mi Calm Calm - N/A   Clear
1:55 AM 37.4 °F 34.9 °F 32.0 °F 81% 30.51 in 10.0 mi NNW 3.5 mph - N/A   Clear
2:15 AM 37.4 °F 32.8 °F 30.2 °F 75% 30.51 in 10.0 mi NNW 5.8 mph - N/A   Clear
2:35 AM 37.4 °F 33.8 °F 30.2 °F 75% 30.50 in 10.0 mi North 4.6 mph - N/A   Clear
2:55 AM 37.4 °F 33.8 °F 30.2 °F 75% 30.50 in 10.0 mi NNW 4.6 mph - N/A   Clear
3:15 AM 37.4 °F 33.8 °F 30.2 °F 75% 30.50 in 10.0 mi North 4.6 mph - N/A   Clear
3:35 AM 37.4 °F 33.8 °F 30.2 °F 75% 30.49 in 10.0 mi North 4.6 mph - N/A   Clear
3:55 AM 37.4 °F 32.8 °F 30.2 °F 75% 30.49 in 10.0 mi North 5.8 mph - N/A   Clear
4:15 AM 37.4 °F 32.8 °F 30.2 °F 75% 30.49 in 10.0 mi North 5.8 mph - N/A   Clear
4:35 AM 37.4 °F 34.9 °F 30.2 °F 75% 30.50 in 10.0 mi North 3.5 mph - N/A   Clear
4:55 AM 37.4 °F 34.9 °F 30.2 °F 75% 30.49 in 10.0 mi North 3.5 mph - N/A   Clear
5:15 AM 37.4 °F 34.9 °F 30.2 °F 75% 30.50 in 10.0 mi North 3.5 mph - N/A   Clear
5:35 AM 35.6 °F 31.7 °F 30.2 °F 81% 30.50 in 10.0 mi North 4.6 mph - N/A   Clear
5:55 AM 37.4 °F 33.8 °F 30.2 °F 75% 30.50 in 10.0 mi North 4.6 mph - N/A   Clear
6:15 AM 37.4 °F 33.8 °F 30.2 °F 75% 30.51 in 10.0 mi North 4.6 mph - N/A   Clear
6:35 AM 37.4 °F 33.8 °F 30.2 °F 75% 30.51 in 10.0 mi North 4.6 mph - N/A   Clear
6:55 AM 37.4 °F 33.8 °F 30.2 °F 75% 30.53 in 10.0 mi North 4.6 mph - N/A   Clear
7:15 AM 37.4 °F 32.8 °F 30.2 °F 75% 30.52 in 10.0 mi North 5.8 mph - N/A   Clear
7:35 AM 39.2 °F 37.0 °F 32.0 °F 75% 30.54 in 10.0 mi North 3.5 mph - N/A   Clear
7:55 AM 39.2 °F 35.9 °F 32.0 °F 75% 30.54 in 10.0 mi NNE 4.6 mph - N/A   Clear
8:35 AM 42.8 °F 38.6 °F 32.0 °F 66% 30.54 in 10.0 mi NNE 6.9 mph - N/A   Clear
8:55 AM 46.4 °F 43.5 °F 32.0 °F 57% 30.54 in 10.0 mi NE 5.8 mph - N/A   Clear
9:35 AM 50.0 °F - 30.2 °F 47% 30.53 in 10.0 mi ENE 4.6 mph - N/A   Clear
9:55 AM 51.8 °F - 26.6 °F 38% 30.52 in 10.0 mi NE 8.1 mph 16.1 mph N/A   Partly Cloudy
10:15 AM 51.8 °F - 28.4 °F 41% 30.51 in 10.0 mi ENE 9.2 mph - N/A   Clear
10:35 AM 53.6 °F - 28.4 °F 38% 30.49 in 10.0 mi NE 12.7 mph - N/A   Clear
10:55 AM 53.6 °F - 23.0 °F 30% 30.49 in 10.0 mi East 8.1 mph 17.3 mph N/A   Clear
11:15 AM 55.4 °F - 23.0 °F 29% 30.48 in 10.0 mi ENE 10.4 mph - N/A   Partly Cloudy
11:35 AM 55.4 °F - 26.6 °F 33% 30.47 in 10.0 mi East 8.1 mph - N/A   Partly Cloudy
11:55 AM 55.4 °F - 21.2 °F 26% 30.46 in 10.0 mi ENE 5.8 mph - N/A   Clear
12:15 PM 57.2 °F - 21.2 °F 25% 30.45 in 10.0 mi East 6.9 mph - N/A   Clear
12:35 PM 57.2 °F - 23.0 °F 27% 30.43 in 10.0 mi NE 5.8 mph - N/A   Clear
12:55 PM 57.2 °F - 23.0 °F 27% 30.42 in 10.0 mi NNE 6.9 mph - N/A   Clear
1:15 PM 57.2 °F - 23.0 °F 27% 30.40 in 10.0 mi East 6.9 mph - N/A   Clear
1:35 PM 55.4 °F - 23.0 °F 29% 30.39 in 10.0 mi NE 5.8 mph - N/A   Clear
1:55 PM 55.4 °F - 23.0 °F 29% 30.38 in 10.0 mi ENE 5.8 mph - N/A   Clear
2:15 PM 55.4 °F - 23.0 °F 29% 30.38 in 10.0 mi NNE 4.6 mph - N/A   Partly Cloudy
2:35 PM 57.2 °F - 23.0 °F 27% 30.38 in 10.0 mi NE 4.6 mph - N/A   Partly Cloudy
2:55 PM 55.4 °F - 23.0 °F 29% 30.38 in 10.0 mi Calm Calm - N/A   Clear
3:15 PM 55.4 °F - 24.8 °F 31% 30.38 in 10.0 mi NNW 5.8 mph - N/A   Clear
3:35 PM - - - N/A% 30.37 in - Calm Calm - N/A   Unknown
3:55 PM 55.4 °F - 23.0 °F 29% 30.38 in 10.0 mi North 4.6 mph - N/A   Overcast
4:15 PM 55.4 °F - 23.0 °F 29% 30.38 in 10.0 mi North 4.6 mph - N/A   Overcast
4:35 PM 55.4 °F - 21.2 °F 26% 30.38 in 10.0 mi Calm Calm - N/A   Overcast
4:55 PM - - - N/A% 30.37 in 10.0 mi Calm Calm - N/A   Overcast
5:15 PM 53.6 °F - 26.6 °F 35% 30.38 in 10.0 mi Calm Calm - N/A   Overcast
5:35 PM - - - N/A% 30.37 in 10.0 mi Calm Calm - N/A   Overcast
5:55 PM 53.6 °F - 30.2 °F 41% 30.38 in 10.0 mi Calm Calm - N/A   Light Drizzle
6:15 PM 53.6 °F - 30.2 °F 41% 30.38 in 10.0 mi Calm Calm - N/A   Mostly Cloudy
6:35 PM 53.6 °F - 32.0 °F 44% 30.37 in 10.0 mi Calm Calm - N/A Thunderstorm Overcast
6:55 PM 53.6 °F - 32.0 °F 44% 30.38 in 10.0 mi Calm Calm - N/A   Overcast
7:15 PM 53.6 °F - 28.4 °F 38% 30.37 in 10.0 mi NE 6.9 mph - N/A   Overcast
7:35 PM 53.6 °F - 30.2 °F 41% 30.37 in 10.0 mi NE 5.8 mph - N/A   Overcast
7:55 PM 51.8 °F - 30.2 °F 44% 30.38 in 10.0 mi NE 6.9 mph - N/A   Overcast
8:15 PM 51.8 °F - 32.0 °F 47% 30.39 in 10.0 mi NE 8.1 mph - N/A   Overcast
8:35 PM 51.8 °F - 33.8 °F 50% 30.40 in 10.0 mi NNE 6.9 mph - N/A   Overcast
8:55 PM 50.0 °F - 33.8 °F 54% 30.40 in 10.0 mi NE 5.8 mph - N/A   Overcast
9:15 PM 50.0 °F - 33.8 °F 54% 30.40 in 10.0 mi NE 3.5 mph - N/A   Overcast
9:35 PM 50.0 °F - 33.8 °F 54% 30.41 in 10.0 mi Calm Calm - N/A   Overcast
9:55 PM 51.8 °F - 32.0 °F 47% 30.41 in 10.0 mi ENE 5.8 mph - N/A   Overcast
10:15 PM 50.0 °F - 32.0 °F 50% 30.42 in 10.0 mi NE 4.6 mph - N/A   Overcast
10:35 PM 50.0 °F - 32.0 °F 50% 30.42 in 10.0 mi ENE 4.6 mph - N/A   Overcast
10:55 PM 50.0 °F - 32.0 °F 50% 30.41 in 10.0 mi Calm Calm - N/A   Overcast
11:35 PM 50.0 °F - 32.0 °F 50% 30.41 in 10.0 mi Calm Calm - N/A   Overcast
11:55 PM 50.0 °F - 32.0 °F 50% 30.40 in 10.0 mi East 3.5 mph - N/A   Overcast